SCP
0 0 0 0 0 0 0 0 0 0 0 0 0 0 0 0 0 0 0 0 0 0 0 0 0 0 0 0 0 0 0 0 0 0 0 0 0 0 0 0 0 0 0
0 0 0 0 0 0 0 0 0 0 0 0 0 0 0 0 0 0 0 0 0 0 0 0 0 0 0 0 0 0 0 0 0 0 0 0 0 0 0 0 0 0 0
0 0 0 0 0 0 0 0 0 0 0 0 0 0 0 0 0 0 0 0 0 0 0 0 0 0 0 0 0 0 0 0 0 0 0 0 0 0 0 0 0 0 0
0 0 0 0 0 0 0 0 0 0 0 0 0 0 0 0 0 0 0 0 0 0 0 0 0 0 0 0 0 0 0 0 0 0 0 0 0 0 0 0 0 0 0
0 0 0 0 0 0 0 0 0 0 0 0 0 0 0 0 0 0 0 0 0 0 0 0 0 0 0 0 0 0 0 0 0 0 0 0 0 0 0 0 0 0 0
0 0 0 0 0 0 0 0 0 0 0 0 0 0 0 0 0 0 0 0 0 0 0 0 0 0 0 0 0 0 0 0 0 0 0 0 0 0 0 0 0 0 0
0 0 0 0 0 0 0 0 0 0 0 0 0 0 0 0 0 0 0 0 0 0 0 0 0 0 0 0 0 0 0 0 0 0 0 0 0 0 0 0 0 0 0
0 0 0 0 0 0 0 0 0 0 0 0 0 0 0 0 0 0 0 0 0 0 0 0 0 0 0 0 0 0 0 0 0 0 0 0 0 0 0 0 0 0 0
0 0 0 0 0 0 0 0 0 0 0 0 0 0 0 0 0 0 0 0 0 0 0 0 0 0 0 0 0 0 0 0 0 0 0 0 0 0 0 0 0 0 0
0 0 0 0 0 0 0 0 0 0 0 0 0 0 0 0 0 0 0 0 0 0 0 0 0 0 0 0 0 0 0 0 0 0 0 0 0 0 0 0 0 0 0
0 0 0 0 0 0 0 0 0 0 0 0 0 0 0 0 0 0 0 0 0 0 0 0 0 0 0 0 0 0 0 0 0 0 0 0 0 0 0 0 0 0 0
0 0 0 0 0 0 0 0 0 0 0 0 0 0 0 0 0 0 0 0 0 0 0 0 0 0 0 0 0 0 0 0 0 0 0 0 0 0 0 0 0 0 0
0 0 0 0 0 0 0 0 0 0 0 0 0 0 0 0 0 0 0 0 0 0 0 0 0 0 0 0 0 0 0 0 0 0 0 0 0 0 0 0 0 0 0
0 0 0 0 0 0 0 0 0 0 0 0 0 0 0 0 0 0 0 0 0 0 0 0 0 0 0 0 0 0 0 0 0 0 0 0 0 0 0 0 0 0 0
0 0 0 0 0 0 0 0 0 0 0 0 0 0 0 0 0 0 0 0 0 0 0 0 0 0 0 0 0 0 0 0 0 0 0 0 0 0 0 0 0 0 0
0 0 0 0 0 0 0 0 0 0 0 0 0 0 0 0 0 0 0 0 0 0 0 0 0 0 0 0 0 0 0 0 0 0 0 0 0 0 0 0 0 0 0
0 0 0 0 0 0 0 0 0 0 0 0 0 0 0 0 0 0 0 0 0 0 0 0 0 0 0 0 0 0 0 0 0 0 0 0 0 0 0 0 0 0 0
0 0 0 0 0 0 0 0 0 0 0 0 0 0 0 0 0 0 0 0 0 0 0 0 0 0 0 0 0 0 0 0 0 0 0 0 0 0 0 0 0 0 0
0 0 0 0 0 0 0 0 0 0 0 0 0 0 0 0 0 0 0 0 0 0 0 0 0 0 0 0 0 0 0 0 0 0 0 0 0 0 0 0 0 0 0
0 0 0 0 0 0 0 0 0 0 0 0 0 0 0 0 0 0 0 0 0 0 0 0 0 0 0 0 0 0 0 0 0 0 0 0 0 0 0 0 0 0 0
0 0 0 0 0 0 0 0 0 0 0 0 0 0 0 0 0 0 0 0 0 0 0 0 0 0 0 0 0 0 0 0 0 0 0 0 0 0 0 0 0 0 0
0 0 0 0 0 0 0 0 0 0 0 0 0 0 0 0 0 0 0 0 0 0 0 0 0 0 0 0 0 0 0 0 0 0 0 0 0 0 0 0 0 0 0
0 0 0 0 0 0 0 0 0 0 0 0 0 0 0 0 0 0 0 0 0 0 0 0 0 0 0 0 0 0 0 0 0 0 0 0 0 0 0 0 0 0 0
0 0 0 0 0 0 0 0 0 0 0 0 0 0 0 0 0 0 0 0 0 0 0 0 0 0 0 0 0 0 0 0 0 0 0 0 0 0 0 0 0 0 0
0 0 0 0 0 0 0 0 0 0 0 0 0 0 0 0 0 0 0 0 0 0 0 0 0 0 0 0 0 0 0 0 0 0 0 0 0 0 0 0 0 0 0
0 0 0 0 0 0 0 0 0 0 0 0 0 0 0 0 0 0 0 0 0 0 0 0 0 0 0 0 0 0 0 0 0 0 0 0 0 0 0 0 0 0 0
Wind_Speed_500mb
12 14 15 17 20 22 23 24 25 26 27 29 29 26 21 18 13 6 2 7 6 33 35 35 39 40 39 39 40 40 40 39 37 39 37 37 37 37 36 32 32 33 34
14 16 18 20 22 23 24 24 24 24 25 25 24 22 21 17 13 9 3 4 10 7 25 35 36 36 37 36 35 37 37 38 35 37 36 35 36 34 34 34 33 35 34
16 19 21 22 25 26 26 25 25 25 26 25 24 22 20 17 14 11 10 10 8 7 4 24 30 31 30 30 30 31 31 29 31 31 31 31 33 34 33 32 33 34 35
17 20 22 24 26 26 26 26 25 26 27 27 27 27 25 22 19 16 13 11 9 7 7 8 9 13 23 24 25 27 28 27 28 29 29 29 29 29 31 31 31 31 33
19 22 24 27 28 27 27 26 26 25 26 26 25 24 23 20 16 13 11 10 10 9 8 8 8 9 11 13 19 22 23 24 26 26 26 27 27 28 29 30 30 32 32
21 23 25 26 27 26 26 26 25 25 24 24 22 20 18 16 14 12 11 9 8 8 8 7 7 7 8 11 14 16 20 21 22 23 25 26 26 26 27 28 28 29 30
22 24 25 26 28 27 26 25 24 21 22 22 16 16 13 13 11 11 8 7 6 6 7 8 9 10 12 14 16 19 21 23 23 25 25 26 26 25 26 26 27 28 30
23 24 25 25 25 25 24 23 21 17 13 11 9 5 1 2 4 5 4 3 5 7 9 10 11 12 14 15 17 18 20 22 24 26 27 28 28 26 25 26 27 27 29
27 27 27 26 26 24 23 21 18 14 7 10 14 13 4 4 5 2 1 4 6 10 11 13 14 16 17 19 20 22 24 24 25 26 27 28 30 30 29 27 28 29 31
31 30 29 27 24 23 21 19 17 16 13 7 7 8 11 12 4 2 8 7 9 11 13 16 17 16 18 20 20 23 26 27 27 27 29 31 33 34 35 36 35 33 33
33 32 29 27 26 24 23 21 19 17 14 13 9 8 6 5 6 5 3 11 16 13 15 17 17 19 20 20 22 28 30 31 32 33 33 35 36 38 41 42 44 43 40
36 33 31 29 27 26 24 22 20 18 15 13 11 11 10 6 7 0 2 7 11 16 21 21 21 21 21 23 26 29 33 34 35 36 37 39 40 42 44 47 48 50 48
40 38 35 32 31 28 25 23 20 18 16 13 12 9 8 7 7 6 6 9 12 17 19 20 19 21 23 26 33 36 38 39 40 42 44 46 47 49 51 54 56 57 58
42 40 38 36 32 28 26 23 20 17 15 14 12 10 10 10 10 10 11 14 14 15 19 20 29 26 28 34 42 45 46 48 50 50 51 53 56 58 59 61 62 63 65
43 40 37 34 31 29 26 24 21 19 17 15 14 12 13 14 15 16 18 18 17 12 19 17 29 34 40 47 54 60 62 63 62 62 63 64 65 66 67 69 70 70 69
42 40 38 36 33 30 28 25 23 21 20 18 16 16 17 19 21 22 24 26 28 28 25 33 38 47 56 62 65 69 71 72 74 76 77 79 80 80 80 79 78 77 73
45 43 40 37 35 32 29 27 25 23 22 20 19 20 21 23 26 29 31 33 35 37 46 57 57 60 64 69 72 73 77 83 86 85 85 85 86 88 89 89 87 83 78
48 45 42 40 37 34 32 29 27 25 24 23 23 24 25 28 32 34 36 37 39 41 48 61 65 69 71 72 77 80 82 83 87 88 88 90 92 96 98 97 95 90 87
51 48 45 42 39 36 34 31 30 28 27 27 27 29 31 34 36 37 38 42 45 48 52 59 70 68 70 71 73 75 80 82 84 90 95 96 94 94 91 86 89 87 86
51 48 45 42 40 38 37 35 33 32 31 32 34 35 37 40 41 43 46 48 51 54 58 63 68 69 63 64 65 70 76 80 85 89 95 90 81 80 79 77 79 80 85
51 49 46 45 43 41 39 38 36 35 36 37 39 41 40 41 43 47 50 51 51 53 51 56 63 66 63 66 73 70 84 95 90 76 76 77 70 73 79 77 82 82 81
52 50 49 46 43 42 40 40 38 39 39 38 38 39 40 43 46 47 49 50 51 52 55 56 62 65 68 73 75 62 60 65 82 79 67 91 83 106 99 82 81 91 94
52 51 48 45 43 42 41 39 37 36 34 34 36 39 41 44 45 47 49 51 54 54 51 54 62 61 62 54 57 70 81 93 109 128 110 102 95 104 108 107 97 92 93
50 46 43 42 40 37 38 33 30 30 32 34 35 38 40 43 44 47 51 55 57 57 54 48 49 62 68 75 79 89 101 109 118 116 100 84 92 96 94 89 81 82 87
47 44 41 38 34 30 30 28 26 26 27 29 32 37 41 43 44 47 52 57 57 63 67 68 62 64 77 80 85 86 97 90 95 97 92 75 87 85 82 97 108 105 95
43 40 37 33 30 26 26 25 22 20 23 28 35 39 43 48 48 47 42 47 55 67 77 79 85 87 86 92 88 80 72 70 75 84 92 70 86 89 95 98 90 88 95
Wind_Direction_500mb
112 111 114 113 111 107 105 105 105 108 113 121 128 127 127 139 151 143 140 355 35 76 58 45 56 58 56 57 54 52 52 49 48 46 44 40 38 38 34 36 36 30 28
130 128 125 124 122 118 117 116 116 116 118 122 129 135 140 147 156 178 222 321 321 325 68 65 66 61 57 53 52 48 45 45 43 40 38 35 34 29 30 31 29 26 25
137 134 132 129 125 120 117 116 115 115 117 120 124 126 128 129 127 121 111 97 94 69 72 80 79 69 60 55 48 44 43 38 37 36 35 32 28 27 24 23 22 23 19
142 138 135 134 131 125 120 119 119 120 120 121 119 117 115 114 111 108 101 93 86 83 67 71 75 77 65 56 50 42 36 32 30 29 28 27 24 22 18 20 16 16 17
150 146 143 142 138 131 127 126 126 125 125 121 119 119 118 118 115 109 101 91 82 70 60 55 43 25 12 21 42 42 34 25 24 22 20 19 18 15 15 12 10 10 8
154 150 148 146 138 133 133 134 134 132 127 123 120 117 112 109 105 101 92 74 55 43 32 26 20 10 6 360 358 8 25 22 16 13 10 10 10 8 8 6 5 3 1
158 152 151 148 145 143 141 137 135 132 133 126 112 112 102 107 100 105 88 76 50 20 359 352 347 345 349 351 351 349 348 348 351 352 353 353 357 359 358 357 357 355 354
158 153 151 150 148 146 146 144 143 145 151 151 146 164 225 26 74 114 93 52 13 351 337 329 327 328 331 336 340 342 340 338 337 338 338 338 339 342 347 346 344 342 341
162 159 155 156 155 155 155 155 155 151 167 179 168 167 222 216 221 239 264 321 329 328 323 321 320 319 323 326 330 337 338 335 333 332 330 329 327 326 325 329 330 329 328
169 166 164 164 164 167 167 164 163 160 154 150 154 182 195 192 215 236 288 294 306 311 309 312 313 311 315 319 323 330 333 331 329 328 326 324 321 319 318 316 315 316 316
176 174 172 171 172 173 171 170 171 174 179 179 194 200 199 205 206 168 240 319 319 312 299 301 304 306 312 309 313 322 324 324 323 323 322 321 319 317 315 313 312 309 309
184 182 182 181 180 179 177 176 179 180 184 190 198 207 205 210 259 6 324 285 259 284 300 301 301 303 304 305 308 314 317 318 318 318 318 318 317 315 313 311 309 308 306
192 190 190 188 188 187 185 187 189 191 197 205 213 223 232 242 255 267 271 282 294 289 301 298 290 298 294 298 305 308 308 311 310 311 312 312 312 311 311 310 308 307 304
198 196 195 195 193 192 194 197 201 206 213 223 232 246 261 274 283 292 295 301 313 295 303 301 300 300 291 295 302 304 304 305 305 305 305 307 308 308 308 308 307 304 302
205 203 203 202 199 200 202 206 209 216 225 236 246 260 275 286 294 297 298 302 298 301 288 289 300 296 300 302 304 304 304 304 303 302 302 301 301 304 305 306 304 301 299
212 210 209 208 208 209 212 216 220 225 232 242 256 270 281 289 294 296 298 299 297 288 275 282 280 286 293 299 301 302 302 301 301 301 301 301 301 301 302 301 300 298 296
215 214 214 214 215 217 219 223 228 233 241 250 259 270 279 287 292 296 297 298 295 291 286 293 294 297 296 299 300 300 300 300 300 300 300 299 299 298 299 300 300 298 293
218 218 218 218 220 222 225 229 234 241 248 257 266 275 281 286 291 294 294 293 291 290 289 290 296 298 298 301 299 298 298 297 298 300 301 301 301 302 302 301 300 298 295
219 220 221 223 225 227 230 234 240 247 255 262 268 275 281 285 288 289 288 290 292 291 291 291 294 296 297 302 307 306 305 304 302 302 303 304 302 301 299 295 295 294 295
221 222 223 225 227 230 234 240 246 252 257 263 269 274 280 284 286 289 290 291 291 291 294 296 300 304 305 305 302 302 298 295 295 298 301 303 300 296 294 294 292 292 296
220 221 222 225 229 234 239 245 250 256 261 266 272 276 281 285 287 288 291 294 295 297 296 295 296 300 300 302 304 306 299 302 304 303 303 303 301 298 298 294 290 289 288
219 220 222 226 231 237 242 247 253 258 263 266 272 280 283 285 287 291 293 294 296 296 298 298 300 300 299 298 304 300 295 296 302 298 295 291 291 292 294 290 290 291 288
216 218 222 227 232 237 242 246 252 257 264 271 276 280 283 286 290 292 293 294 294 295 293 292 292 299 301 294 291 293 293 294 293 294 301 299 298 291 290 291 291 288 285
216 217 219 221 226 230 240 246 252 260 267 272 277 281 284 288 293 297 298 298 298 299 299 296 285 285 285 285 293 296 296 296 296 296 299 296 299 295 297 297 294 290 288
209 209 211 213 216 222 240 249 255 262 270 277 282 285 289 293 297 298 299 305 306 299 296 295 296 287 291 298 299 302 300 302 300 300 301 298 297 296 293 287 287 289 290
201 199 200 202 208 217 238 252 260 272 284 290 293 297 298 299 301 308 317 305 297 295 303 303 295 300 302 304 305 305 304 295 295 297 302 300 297 298 300 301 298 293 295
Wind_Speed_850mb
12 14 15 17 20 22 23 24 25 26 27 29 29 26 21 18 13 6 2 7 6 33 35 35 39 40 39 39 40 40 40 39 37 39 37 37 37 37 36 32 32 33 34
14 16 18 20 22 23 24 24 24 24 25 25 24 22 21 17 13 9 3 4 10 7 25 35 36 36 37 36 35 37 37 38 35 37 36 35 36 34 34 34 33 35 34
16 19 21 22 25 26 26 25 25 25 26 25 24 22 20 17 14 11 10 10 8 7 4 24 30 31 30 30 30 31 31 29 31 31 31 31 33 34 33 32 33 34 35
17 20 22 24 26 26 26 26 25 26 27 27 27 27 25 22 19 16 13 11 9 7 7 8 9 13 23 24 25 27 28 27 28 29 29 29 29 29 31 31 31 31 33
19 22 24 27 28 27 27 26 26 25 26 26 25 24 23 20 16 13 11 10 10 9 8 8 8 9 11 13 19 22 23 24 26 26 26 27 27 28 29 30 30 32 32
21 23 25 26 27 26 26 26 25 25 24 24 22 20 18 16 14 12 11 9 8 8 8 7 7 7 8 11 14 16 20 21 22 23 25 26 26 26 27 28 28 29 30
22 24 25 26 28 27 26 25 24 21 22 22 16 16 13 13 11 11 8 7 6 6 7 8 9 10 12 14 16 19 21 23 23 25 25 26 26 25 26 26 27 28 30
23 24 25 25 25 25 24 23 21 17 13 11 9 5 1 2 4 5 4 3 5 7 9 10 11 12 14 15 17 18 20 22 24 26 27 28 28 26 25 26 27 27 29
27 27 27 26 26 24 23 21 18 14 7 10 14 13 4 4 5 2 1 4 6 10 11 13 14 16 17 19 20 22 24 24 25 26 27 28 30 30 29 27 28 29 31
31 30 29 27 24 23 21 19 17 16 13 7 7 8 11 12 4 2 8 7 9 11 13 16 17 16 18 20 20 23 26 27 27 27 29 31 33 34 35 36 35 33 33
33 32 29 27 26 24 23 21 19 17 14 13 9 8 6 5 6 5 3 11 16 13 15 17 17 19 20 20 22 28 30 31 32 33 33 35 36 38 41 42 44 43 40
36 33 31 29 27 26 24 22 20 18 15 13 11 11 10 6 7 0 2 7 11 16 21 21 21 21 21 23 26 29 33 34 35 36 37 39 40 42 44 47 48 50 48
40 38 35 32 31 28 25 23 20 18 16 13 12 9 8 7 7 6 6 9 12 17 19 20 19 21 23 26 33 36 38 39 40 42 44 46 47 49 51 54 56 57 58
42 40 38 36 32 28 26 23 20 17 15 14 12 10 10 10 10 10 11 14 14 15 19 20 29 26 28 34 42 45 46 48 50 50 51 53 56 58 59 61 62 63 65
43 40 37 34 31 29 26 24 21 19 17 15 14 12 13 14 15 16 18 18 17 12 19 17 29 34 40 47 54 60 62 63 62 62 63 64 65 66 67 69 70 70 69
42 40 38 36 33 30 28 25 23 21 20 18 16 16 17 19 21 22 24 26 28 28 25 33 38 47 56 62 65 69 71 72 74 76 77 79 80 80 80 79 78 77 73
45 43 40 37 35 32 29 27 25 23 22 20 19 20 21 23 26 29 31 33 35 37 46 57 57 60 64 69 72 73 77 83 86 85 85 85 86 88 89 89 87 83 78
48 45 42 40 37 34 32 29 27 25 24 23 23 24 25 28 32 34 36 37 39 41 48 61 65 69 71 72 77 80 82 83 87 88 88 90 92 96 98 97 95 90 87
51 48 45 42 39 36 34 31 30 28 27 27 27 29 31 34 36 37 38 42 45 48 52 59 70 68 70 71 73 75 80 82 84 90 95 96 94 94 91 86 89 87 86
51 48 45 42 40 38 37 35 33 32 31 32 34 35 37 40 41 43 46 48 51 54 58 63 68 69 63 64 65 70 76 80 85 89 95 90 81 80 79 77 79 80 85
51 49 46 45 43 41 39 38 36 35 36 37 39 41 40 41 43 47 50 51 51 53 51 56 63 66 63 66 73 70 84 95 90 76 76 77 70 73 79 77 82 82 81
52 50 49 46 43 42 40 40 38 39 39 38 38 39 40 43 46 47 49 50 51 52 55 56 62 65 68 73 75 62 60 65 82 79 67 91 83 106 99 82 81 91 94
52 51 48 45 43 42 41 39 37 36 34 34 36 39 41 44 45 47 49 51 54 54 51 54 62 61 62 54 57 70 81 93 109 128 110 102 95 104 108 107 97 92 93
50 46 43 42 40 37 38 33 30 30 32 34 35 38 40 43 44 47 51 55 57 57 54 48 49 62 68 75 79 89 101 109 118 116 100 84 92 96 94 89 81 82 87
47 44 41 38 34 30 30 28 26 26 27 29 32 37 41 43 44 47 52 57 57 63 67 68 62 64 77 80 85 86 97 90 95 97 92 75 87 85 82 97 108 105 95
43 40 37 33 30 26 26 25 22 20 23 28 35 39 43 48 48 47 42 47 55 67 77 79 85 87 86 92 88 80 72 70 75 84 92 70 86 89 95 98 90 88 95
Wind_Direction_850mb
112 111 114 113 111 107 105 105 105 108 113 121 128 127 127 139 151 143 140 355 35 76 58 45 56 58 56 57 54 52 52 49 48 46 44 40 38 38 34 36 36 30 28
130 128 125 124 122 118 117 116 116 116 118 122 129 135 140 147 156 178 222 321 321 325 68 65 66 61 57 53 52 48 45 45 43 40 38 35 34 29 30 31 29 26 25
137 134 132 129 125 120 117 116 115 115 117 120 124 126 128 129 127 121 111 97 94 69 72 80 79 69 60 55 48 44 43 38 37 36 35 32 28 27 24 23 22 23 19
142 138 135 134 131 125 120 119 119 120 120 121 119 117 115 114 111 108 101 93 86 83 67 71 75 77 65 56 50 42 36 32 30 29 28 27 24 22 18 20 16 16 17
150 146 143 142 138 131 127 126 126 125 125 121 119 119 118 118 115 109 101 91 82 70 60 55 43 25 12 21 42 42 34 25 24 22 20 19 18 15 15 12 10 10 8
154 150 148 146 138 133 133 134 134 132 127 123 120 117 112 109 105 101 92 74 55 43 32 26 20 10 6 360 358 8 25 22 16 13 10 10 10 8 8 6 5 3 1
158 152 151 148 145 143 141 137 135 132 133 126 112 112 102 107 100 105 88 76 50 20 359 352 347 345 349 351 351 349 348 348 351 352 353 353 357 359 358 357 357 355 354
158 153 151 150 148 146 146 144 143 145 151 151 146 164 225 26 74 114 93 52 13 351 337 329 327 328 331 336 340 342 340 338 337 338 338 338 339 342 347 346 344 342 341
162 159 155 156 155 155 155 155 155 151 167 179 168 167 222 216 221 239 264 321 329 328 323 321 320 319 323 326 330 337 338 335 333 332 330 329 327 326 325 329 330 329 328
169 166 164 164 164 167 167 164 163 160 154 150 154 182 195 192 215 236 288 294 306 311 309 312 313 311 315 319 323 330 333 331 329 328 326 324 321 319 318 316 315 316 316
176 174 172 171 172 173 171 170 171 174 179 179 194 200 199 205 206 168 240 319 319 312 299 301 304 306 312 309 313 322 324 324 323 323 322 321 319 317 315 313 312 309 309
184 182 182 181 180 179 177 176 179 180 184 190 198 207 205 210 259 6 324 285 259 284 300 301 301 303 304 305 308 314 317 318 318 318 318 318 317 315 313 311 309 308 306
192 190 190 188 188 187 185 187 189 191 197 205 213 223 232 242 255 267 271 282 294 289 301 298 290 298 294 298 305 308 308 311 310 311 312 312 312 311 311 310 308 307 304
198 196 195 195 193 192 194 197 201 206 213 223 232 246 261 274 283 292 295 301 313 295 303 301 300 300 291 295 302 304 304 305 305 305 305 307 308 308 308 308 307 304 302
205 203 203 202 199 200 202 206 209 216 225 236 246 260 275 286 294 297 298 302 298 301 288 289 300 296 300 302 304 304 304 304 303 302 302 301 301 304 305 306 304 301 299
212 210 209 208 208 209 212 216 220 225 232 242 256 270 281 289 294 296 298 299 297 288 275 282 280 286 293 299 301 302 302 301 301 301 301 301 301 301 302 301 300 298 296
215 214 214 214 215 217 219 223 228 233 241 250 259 270 279 287 292 296 297 298 295 291 286 293 294 297 296 299 300 300 300 300 300 300 300 299 299 298 299 300 300 298 293
218 218 218 218 220 222 225 229 234 241 248 257 266 275 281 286 291 294 294 293 291 290 289 290 296 298 298 301 299 298 298 297 298 300 301 301 301 302 302 301 300 298 295
219 220 221 223 225 227 230 234 240 247 255 262 268 275 281 285 288 289 288 290 292 291 291 291 294 296 297 302 307 306 305 304 302 302 303 304 302 301 299 295 295 294 295
221 222 223 225 227 230 234 240 246 252 257 263 269 274 280 284 286 289 290 291 291 291 294 296 300 304 305 305 302 302 298 295 295 298 301 303 300 296 294 294 292 292 296
220 221 222 225 229 234 239 245 250 256 261 266 272 276 281 285 287 288 291 294 295 297 296 295 296 300 300 302 304 306 299 302 304 303 303 303 301 298 298 294 290 289 288
219 220 222 226 231 237 242 247 253 258 263 266 272 280 283 285 287 291 293 294 296 296 298 298 300 300 299 298 304 300 295 296 302 298 295 291 291 292 294 290 290 291 288
216 218 222 227 232 237 242 246 252 257 264 271 276 280 283 286 290 292 293 294 294 295 293 292 292 299 301 294 291 293 293 294 293 294 301 299 298 291 290 291 291 288 285
216 217 219 221 226 230 240 246 252 260 267 272 277 281 284 288 293 297 298 298 298 299 299 296 285 285 285 285 293 296 296 296 296 296 299 296 299 295 297 297 294 290 288
209 209 211 213 216 222 240 249 255 262 270 277 282 285 289 293 297 298 299 305 306 299 296 295 296 287 291 298 299 302 300 302 300 300 301 298 297 296 293 287 287 289 290
201 199 200 202 208 217 238 252 260 272 284 290 293 297 298 299 301 308 317 305 297 295 303 303 295 300 302 304 305 305 304 295 295 297 302 300 297 298 300 301 298 293 295